Location: Blackwall
(51.5097°N, 0.0016°W)
Time: 23:48:13
(UTC+00:00)

Cosmos 44 - Pass Details

Date: 15 May 2026
Orbit: 568 x 782 km, 65.1° (Epoch: 11 June)

Event Time Altitude Azimuth Distance (km) Brightness Sun altitude
Rises 22:30:54 0° 317° (NW) 3,278 8.1 -17.0°
Reaches altitude 10° 22:33:23 10° 313° (NW) 2,344 7.0 -17.1°
Maximum altitude 22:38:41 58° 236° (SW) 898 3.7 -17.4°
Enters shadow 22:41:02 31° 171° (S) 1,311 4.1 -17.5°
